Location: ???
(60.6398°N, 46.9067°E)
Time: 19:12:05
(UTC+00:00)

Daily predictions for brighter satellites

Satellite Brightness Start Highest point End
(mag) Time Altitude Azimuth Time Altitude Azimuth Time Altitude Azimuth
Cosmos 921 Rocket 3.7 12:50:35 10° S 12:54:50 42° ESE 12:59:07 10° NE
Cosmos 1980 Rocket 2.6 12:49:25 10° WSW 12:54:58 61° NW 13:00:34 10° NE
NOSS 2-1 (E) 4.4 12:50:58 10° WNW 12:55:20 68° SSW 13:01:23 10° SE
USA 267 3.8 12:49:19 10° ESE 12:55:48 64° S 13:02:18 10° W
CZ-4 R/B 3.2 12:53:58 10° ENE 12:55:51 13° NE 12:57:45 10° NNE
SL-16 R/B 2.3 12:50:31 10° SSW 12:56:10 72° SE 13:01:51 10° NE
CZ-4B R/B 3.4 12:51:38 10° SE 12:56:43 47° ENE 13:01:47 10° NNW
Cosmos 192 4.4 12:51:59 10° SSW 12:56:58 83° ESE 13:01:58 10° NE
Cosmos 1633 2.5 12:53:25 10° NNW 12:57:00 83° ENE 13:00:36 10° SSE
ALOS 3.7 12:52:35 10° S 12:57:02 44° W 13:01:32 10° NNW
Meteor 2-10 Rocket 3.8 12:52:55 10° SSW 12:57:55 69° WNW 13:03:05 10° NNE
Cosmos 1500 Rocket 4.1 12:53:59 10° N 12:58:05 38° ENE 13:02:12 10° SE
COSMOS 2455 4.3 12:52:52 10° NW 12:58:32 43° WSW 13:04:10 10° SSE
Meteor 2-1 Rocket 4.5 12:55:23 10° SSW 13:01:05 79° WNW 13:06:56 10° NNE
NOAA 12 4.4 12:57:14 10° SE 13:02:19 47° ENE 13:07:24 10° NNW
Cosmos 468 Rocket 4.5 12:58:29 10° S 13:03:17 42° ESE 13:08:07 10° NE
Cosmos 2151 4.0 12:59:54 10° NNW 13:04:01 52° W 13:08:08 10° S
Okean 3 Rocket 3.8 12:59:53 10° NNW 13:04:22 80° W 13:08:52 10° S
Cosmos 2369 Rocket 3.0 12:59:58 10° NW 13:05:10 33° NNE 13:10:20 10° E
Cosmos 2221 3.7 13:01:50 10° SE 13:05:14 23° E 13:08:37 10° NE
Cosmos 1844 Rocket 4.4 13:01:44 10° NW 13:06:58 38° WSW 13:12:09 10° S
Cosmos 1939 Rocket 4.0 13:07:19 10° ESE 13:10:17 21° NE 13:13:17 10° N
Cosmos 2369 4.5 13:05:03 10° WSW 13:10:29 45° NNW 13:15:57 10° NE
Meteor 2-3 Rocket 4.2 13:06:08 10° NNW 13:11:57 72° WSW 13:17:44 10° S
Cosmos 540 Rocket 4.4 13:08:14 10° SSE 13:12:35 29° ESE 13:16:58 10° NE
GENESIS II 4.4 13:10:40 10° WNW 13:14:41 81° SW 13:18:39 10° SE
Cosmos 1766 Rocket 4.0 13:10:48 10° NNW 13:15:15 70° W 13:19:39 10° S
GEOS 3 Rocket 3.8 13:10:15 10° ENE 13:15:41 77° NNW 13:21:05 10° WSW
Cosmos 1869 4.1 13:12:49 10° SSE 13:16:30 34° E 13:20:15 10° NNE
YAOGAN 1 4.0 13:15:37 10° E 13:18:34 18° NE 13:21:32 10° N
SJ 16-02 4.2 13:15:22 10° NW 13:18:49 22° W 13:22:14 10° SSW
Cosmos 1812 Rocket 4.0 13:14:36 10° SSW 13:18:55 63° WNW 13:23:15 10° N
CORIOLIS 4.3 13:14:41 10° SE 13:19:58 55° ENE 13:25:18 10° NNW
Cosmos 1743 Rocket 3.7 13:15:39 10° N 13:20:05 55° ENE 13:24:30 10° SSE
Cosmos 2315 Rocket 4.0 13:13:59 10° S 13:20:11 71° E 13:26:29 10° NNE
Cosmos 841 Rocket 4.3 13:15:43 10° SSE 13:20:18 32° ESE 13:24:53 10° NE
SL-16 R/B 3.4 13:14:28 10° NNE 13:20:29 49° NW 13:26:28 10° SW
Cosmos 2237 4.4 13:16:32 10° SSW 13:22:08 63° ESE 13:27:47 10° NE
AQUARIUS 4.3 13:18:26 10° SE 13:22:48 52° ENE 13:27:12 10° N
Okean-O 3.8 13:19:31 10° E 13:22:55 22° NE 13:26:19 10° N
Envisat 3.0 13:18:14 10° SSE 13:23:20 82° ENE 13:28:27 10° NNW
Cosmos 2154 Rocket 4.1 13:17:33 10° N 13:23:48 57° ENE 13:30:02 10° SSE
Cosmos 1408 Rocket 3.6 13:22:20 10° NNW 13:26:48 87° WSW 13:31:11 10° S
SeaSat 1 3.9 13:24:10 11° NE 13:27:54 24° N 13:31:46 10° NW
Cosmos 2297 3.9 13:23:20 10° NW 13:28:54 52° NE 13:34:28 10° ESE
H-2A R/B 3.2 13:25:08 10° E 13:29:08 23° NE 13:33:05 10° N
Cosmos 2341 Rocket 4.4 13:24:51 10° N 13:30:46 42° ENE 13:36:42 10° SE
Sich 1 3.6 13:28:07 10° N 13:32:15 35° ENE 13:36:18 10° SE
H-2A R/B 2.5 13:29:00 10° SSE 13:33:20 87° WSW 13:37:30 10° NNW
Okean O Rocket 1.6 13:31:38 10° SSE 13:35:56 65° ENE 13:40:19 10° NNW
H-2A R/B 3.3 13:33:53 10° S 13:37:42 64° WSW 13:41:36 10° NNW
USA 281 3.3 13:31:35 10° ESE 13:38:01 60° NE 13:44:28 10° NNW
Cosmos 1943 Rocket 2.5 13:33:35 10° NW 13:38:54 45° NNE 13:44:14 10° ESE
Cosmos 1842 Rocket 3.9 13:36:11 10° SSE 13:40:16 42° E 13:44:24 10° NNE
Cosmos 1805 Rocket 3.8 13:36:02 10° N 13:40:24 48° ENE 13:44:44 10° SE
Cosmos 405 Rocket 2.6 13:36:40 10° NNW 13:40:31 74° ENE 13:44:25 10° SSE
Cosmos 2322 Rocket 2.3 13:39:04 10° SW 13:44:47 79° NW 13:50:07 12° NE
Cosmos 2285 Rocket 4.2 13:39:47 10° NNW 13:46:06 53° NE 13:52:21 10° ESE
Cosmos 1666 Rocket 4.2 13:42:17 10° N 13:46:17 33° ENE 13:50:17 10° SE
Aureole 2 Rocket 4.5 13:44:50 10° NW 13:47:08 25° WSW 13:49:28 10° S
Cosmos 1570 Rocket 4.4 13:43:54 10° S 13:48:54 44° ESE 13:53:14 14° NE
Radarsat Rocket 4.4 13:43:06 10° SSE 13:49:12 75° WSW 13:56:06 10° NNW
Cosmos 44 Rocket 3.7 13:46:36 10° WNW 13:51:32 52° N 13:55:14 18° ENE
Cosmos 2327 Rocket 4.4 13:45:38 10° NNW 13:51:47 78° ENE 13:57:58 10° SSE
Cosmos 2074 Rocket 4.2 13:46:07 10° NNW 13:52:23 80° W 13:58:37 10° S
SMAP 3.1 13:48:05 10° SSE 13:52:46 90° ENE 13:57:28 10° NNW
YAOGAN 6 2.9 13:51:17 10° S 13:54:56 69° WSW 13:58:35 10° NNW
ADEOS Rocket 3.6 13:48:07 10° NNE 13:55:35 72° ESE 14:03:22 10° S
ARGOS 4.1 13:52:43 12° E 13:56:45 27° NE 14:01:13 10° N
Helios 1A Rocket 3.6 13:54:24 10° ESE 13:57:59 31° ENE 14:01:34 10° N
Feng Yun 1-1 Rocket 4.3 13:52:21 10° SE 13:58:02 63° ENE 14:03:37 10° NNW
SL-8 Rocket 4.2 13:53:22 10° N 13:59:22 47° ENE 14:05:23 10° SE
Cosmos 2333 Rocket 2.4 13:54:24 10° SSW 13:59:53 52° ESE 14:04:09 17° NE
Cosmos 1607 4.2 13:54:02 10° SSW 14:00:15 57° SE 14:04:59 18° ENE
Meteor 1-27 4.2 13:55:03 10° SSW 14:00:41 86° ESE 14:06:28 10° NNE
CZ-2C R/B 3.4 13:58:08 10° SE 14:02:46 38° ENE 14:07:14 10° N
SL-08 R/B 4.1 13:58:30 10° NNE 14:03:21 56° WNW 14:08:09 10° SW
Cosmos 2184 Rocket 4.4 13:57:04 10° NNW 14:03:27 73° W 14:09:48 10° S
CZ-4C R/B 3.0 14:00:10 11° NNE 14:03:34 64° ESE 14:07:10 10° S
Cosmos 1697 Rocket 3.8 13:59:23 10° W 14:04:28 32° NNW 14:08:26 15° NE
COSMOS 2428 3.1 13:59:43 10° S 14:05:10 47° ESE 14:09:09 18° NE
Cosmos 2278 Rocket 3.1 14:01:48 10° NW 14:07:20 54° WSW 14:12:51 10° SSE
H-2A R/B 2.1 14:03:52 12° NNE 14:07:39 53° ESE 14:11:45 10° S
Ariane Rocket 4.3 14:07:15 19° NE 14:07:57 19° NE 14:11:30 10° N
Cosmos 1763 Rocket 3.4 14:05:00 10° SSW 14:10:06 86° WNW 14:14:28 14° NNE
Cosmos 2084 Rocket 3.7 14:07:12 10° SW 14:11:14 52° SE 14:13:22 26° E
Landsat 5 3.5 14:07:19 10° NNE 14:11:36 71° ESE 14:16:01 10° S
Cosmos 1606 3.7 14:09:45 10° SE 14:12:59 26° E 14:12:59 26° E
Meteor 1-25 Rocket 4.3 14:08:18 10° NNW 14:13:46 53° ENE 14:19:16 10° SE
Cosmos 405 2.8 14:11:49 10° S 14:15:18 69° ESE 14:17:43 19° NNE
Cosmos 389 Rocket 4.5 14:12:44 10° SE 14:13:31 14° SE 14:13:31 14° SE
Cosmos 1862 3.8 14:11:47 10° NNW 14:15:50 64° W 14:19:49 10° S
Cosmos 1295 Rocket 4.4 14:10:53 10° NNW 14:17:03 89° ENE 14:23:16 10° SSE
Meteor 2-12 Rocket 4.4 14:11:56 10° NNW 14:18:10 76° ENE 14:24:19 10° SSE
Cosmos 1633 Rocket 3.2 14:13:56 10° N 14:18:14 47° ENE 14:22:28 10° SE
Resurs 01 Rocket 3.9 14:22:29 10° NNE 14:22:29 10° NNE 14:22:29 10° NNE
Cosmos 1125 Rocket 4.2 14:20:35 10° NW 14:25:41 57° WSW 14:30:47 10° SSE
Cosmos 2360 Rocket 2.4 14:20:50 10° SW 14:26:28 73° NW 14:30:40 19° NE
NOSS 3-3 (A) 4.3 14:20:29 10° WNW 14:27:13 74° N 14:32:20 23° E
NOSS 3-3 (C) 4.3 14:20:35 10° WNW 14:27:20 74° N 14:32:25 23° E
CZ-4 R/B 1.5 14:26:15 10° SE 14:30:03 49° ENE 14:33:58 10° N
Cosmos 2208 Rocket 4.0 14:26:48 10° SSW 14:32:04 69° ESE 14:35:41 21° NE
Cosmos 921 Rocket 4.0 14:28:47 10° SW 14:33:09 46° NW 14:36:51 14° NNE
IRS-1C Rocket 4.0 14:28:14 10° SSE 14:33:32 82° ENE 14:38:51 10° NNW
Cosmos 44 3.6 14:28:24 10° WNW 14:33:34 74° SW 14:38:28 12° SE
CSL-04 Debris 4.4 14:29:18 10° SE 14:34:34 49° ENE 14:39:51 10° NNW
Cosmos 2219 Rocket 2.1 14:29:47 10° SSW 14:35:25 73° SE 14:38:56 24° NE
Cosmos 1602 4.1 14:31:43 10° N 14:35:28 40° ENE 14:35:37 39° ENE
CZ-4B R/B 4.2 14:32:14 10° S 14:37:23 47° W 14:42:31 10° NNW
CSL-04 DEB 4.3 14:36:12 22° NNE 14:38:45 71° ESE 14:42:51 10° SSW
CZ-2D R/B 3.1 14:35:17 10° SSE 14:39:06 73° ENE 14:42:57 10° NNW
USA 267 4.3 14:33:26 10° SE 14:39:34 42° SSW 14:45:44 10° W
Cosmos 1980 Rocket 3.4 14:34:58 10° WNW 14:39:59 32° NNW 14:43:04 19° NE
SL-16 R/B 3.0 14:35:12 10° WSW 14:40:39 45° NNW 14:44:26 19° NE
Cosmos 1356 3.5 14:37:46 10° NNW 14:41:13 76° WSW 14:44:38 10° S
ERS-2 2.5 14:41:42 42° ESE 14:41:42 42° ESE 14:44:56 10° S
Cosmos 2221 2.8 14:38:05 10° SSW 14:42:25 70° WNW 14:46:45 10° NNE
SJ-11-01 4.5 14:40:09 22° SE 14:42:59 48° ENE 14:47:35 10° N
Cosmos 2218 Rocket 3.9 14:36:48 10° NNW 14:43:00 69° ENE 14:49:08 10° SSE
Cosmos 2237 Rocket 2.6 14:38:10 10° S 14:43:21 40° ESE 14:44:56 33° ENE
Cosmos 1939 Rocket 2.8 14:40:57 10° SSE 14:44:49 79° WSW 14:48:47 10° NNW
Cosmos 371 Rocket 4.3 14:40:41 10° NNW 14:44:56 28° NNE 14:45:19 28° NE
DNEPR-1 R/B 4.4 14:41:17 10° WSW 14:48:09 84° NNW 14:50:59 32° ENE
Cosmos 2369 Rocket 2.2 14:44:25 10° NW 14:50:09 66° NE 14:53:01 30° ESE
Cosmos 1656 Rocket 3.9 14:44:41 10° NW 14:50:15 50° NE 14:52:08 36° E
USA 81 3.9 14:45:49 10° N 14:51:09 75° E 14:56:26 10° SSE
Cosmos 2322 3.7 14:45:35 10° SW 14:51:17 81° NW 14:54:44 25° NE
CZ-4B R/B 2.4 14:53:47 30° S 14:53:47 30° S 14:55:31 10° S
Cosmos 1470 Rocket 3.5 14:48:13 10° N 14:52:32 56° ENE 14:54:02 36° SE
Meteor 1-11 Rocket 4.4 14:47:39 10° N 14:52:43 32° NE 14:52:50 32° ENE
GEOS 3 Rocket 4.0 14:51:11 32° ENE 14:53:30 56° N 14:58:47 10° W
Cosmos 540 Rocket 3.6 14:48:41 10° SW 14:53:49 75° NW 14:57:02 23° NNE
YAOGAN 1 2.4 14:49:43 10° SSE 14:54:02 69° ENE 14:58:22 10° NNW
Cosmos 2366 rocket 3.9 14:49:24 10° NNW 14:55:43 78° ENE 15:01:54 10° SSE
COSMO-SKYMED 1 2.8 14:56:32 47° ESE 14:56:32 47° ESE 15:00:39 10° S
Meteor 2-2 Rocket 4.5 14:50:54 10° SSW 14:56:51 75° WNW 15:02:44 10° NNE
Okean-O 2.5 14:54:28 10° SSE 14:58:54 86° ENE 15:03:23 10° NNW
CSL-04 Rocket 3.6 14:55:27 16° SE 14:59:45 63° ENE 15:05:00 10° NNW
Cosmos 1980 3.8 14:55:40 10° SSW 15:01:09 52° ESE 15:02:42 40° ENE
Cosmos 841 Rocket 3.7 14:56:39 10° SW 15:01:53 70° NW 15:05:01 24° NNE
SeaSat 1 3.5 15:03:57 29° NNE 15:04:27 30° NNE 15:08:42 10° NW
Meteor 1-14 Rocket 4.2 15:00:19 10° NNW 15:06:12 69° ENE 15:12:09 10° SSE
Nadezhda 1 Rocket 4.2 15:00:35 10° SSW 15:06:57 76° WNW 15:13:26 10° NNE
H-2A R/B 1.9 15:02:38 10° SSE 15:07:55 72° ENE 15:13:05 10° NNW
Sich 1 4.1 15:05:49 10° NNW 15:10:05 46° W 15:14:17 10° SSW
Okean O Rocket 3.9 15:09:02 10° SSW 15:12:42 26° W 15:16:25 10° NW
Cosmos 2297 4.3 15:07:41 10° NW 15:13:14 57° WSW 15:18:48 10° SSE
Cosmos 2333 4.5 15:08:40 10° SW 15:14:19 64° NW 15:17:07 30° NNE
SL-08 RB Rocket 4.2 15:20:09 44° NNE 15:20:09 44° NNE 15:23:46 10° N
SKYMED 3 4.5 15:20:52 69° SE 15:20:52 69° SE 15:24:56 10° S
USA 281 3.9 15:16:15 10° SSE 15:22:40 54° WSW 15:29:07 10° NW
Cosmos 1943 Rocket 2.3 15:17:30 10° NW 15:23:01 71° SW 15:26:21 25° SSE
Cosmos 1933 Rocket 3.5 15:18:52 10° NNW 15:23:01 68° NE 15:23:01 68° NE
Cosmos 1666 Rocket 4.4 15:20:06 10° NNW 15:24:21 50° W 15:28:36 10° S
Cosmos 2239 Rocket 4.5 15:18:19 10° N 15:24:24 56° ENE 15:25:33 49° ESE
Cosmos 1814 Rocket 4.4 15:19:22 10° SW 15:24:40 64° NW 15:27:14 30° NNE
SL-24 DEB 4.1 15:23:12 10° N 15:28:01 76° E 15:32:47 10° S
Meteor 1-26 Rocket 4.4 15:22:13 10° S 15:28:04 55° E 15:28:33 53° E
Cosmos 2322 Rocket 3.3 15:24:21 10° W 15:29:36 36° NNW 15:31:55 26° NNE
SL-16 R/B 3.5 15:25:18 10° S 15:27:59 25° SSE 15:27:59 25° SSE
Helios 1A Rocket 3.7 15:29:06 10° S 15:33:02 50° WSW 15:36:59 10° NNW
Cosmos 44 Rocket 3.2 15:28:28 10° WNW 15:33:35 78° NNE 15:33:56 74° ENE
Cosmos 2263 4.0 15:29:53 10° NW 15:35:34 85° NE 15:36:38 61° SE
ARGOS 3.0 15:34:14 37° SSE 15:36:29 86° ENE 15:41:57 10° NNW
NOSS 0 Rocket 3.8 15:32:43 10° SW 15:38:59 83° SE 15:40:40 52° NE
ADEOS Rocket 4.5 15:33:54 10° NNE 15:40:48 46° NW 15:48:05 10° WSW
CZ-2C R/B 3.6 15:37:37 10° S 15:42:36 54° W 15:47:24 10° NNW
H-2A R/B 3.6 15:40:57 17° N 15:43:31 31° WNW 15:47:12 10° WSW
MetOp-A 4.4 15:44:25 52° NNE 15:44:25 52° NNE 15:48:50 10° NNW
EO 1 Delta rocket 4.0 15:41:48 36° NNE 15:43:57 88° ESE 15:49:45 10° SSW
Cosmos 2333 Rocket 2.7 15:38:37 10° WSW 15:44:14 57° NW 15:46:09 38° NNE
Cosmos 836 Rocket 4.4 15:39:16 10° SSW 15:44:34 82° ESE 15:44:43 81° E
SKYMED 2 3.8 15:45:10 66° SW 15:45:10 66° SW 15:49:00 10° SSW
USA 215 3.6 15:44:55 45° SE 15:45:26 45° SSE 15:51:41 10° SW
Ariane Rocket 3.6 15:47:27 44° N 15:47:27 44° N 15:51:07 10° NNW
Cosmos 1607 4.1 15:41:06 10° WSW 15:47:32 73° NNW 15:49:06 53° NE
MOS 1 4.4 15:48:38 58° NE 15:48:38 58° NE 15:53:40 10° NNW
Cosmos 1606 3.6 15:44:42 10° SSW 15:48:02 48° W 15:48:02 48° W
COSMOS 2428 3.1 15:43:44 10° WSW 15:49:26 61° NW 15:51:10 43° NNE
Cosmos 1697 Rocket 3.8 15:44:55 10° NW 15:49:56 31° N 15:50:09 31° NNE
Cosmos 2084 Rocket 4.0 15:46:28 10° W 15:49:54 56° WNW 15:49:54 56° WNW
Cosmos 724 4.2 15:45:28 10° SW 15:51:28 88° NNW 15:52:19 68° NE
Resurs 01 Rocket 4.0 16:00:02 13° N 16:00:02 13° N 16:00:40 10° N
Cosmos 2181 Rocket 4.1 15:50:26 10° SSW 15:56:53 80° WNW 16:03:18 10° NNE
Cosmos 1934 Rocket 4.0 15:51:05 10° NNW 15:57:09 64° NE 15:57:09 64° NE
Cosmos 1821 Rocket 3.9 15:52:19 10° NNW 15:58:31 89° WSW 16:00:35 46° S
CZ-4 R/B 3.2 16:01:50 10° SSW 16:05:18 29° W 16:08:52 10° NNW
Meteor 1-5 Rocket 4.3 15:59:18 10° NNW 16:05:21 82° WSW 16:06:22 63° S
Cosmos 2056 Rocket 4.3 16:04:56 10° NNW 16:08:35 43° N 16:08:35 43° N
Cosmos 2360 Rocket 3.3 16:06:11 10° W 16:11:19 34° NNW 16:12:26 32° N
ERS-2 4.4 16:16:18 24° W 16:16:18 24° W 16:18:11 10° WSW
NOSS 3-3 (A) 4.4 16:11:25 10° WNW 16:18:27 73° SW 16:19:47 61° SSE
NOSS 3-3 (C) 4.4 16:11:32 10° WNW 16:18:32 73° SW 16:19:51 61° SSE
Cosmos 2219 Rocket 3.0 16:14:22 10° WSW 16:19:47 44° NNW 16:20:38 41° N
Cosmos 1980 Rocket 3.5 16:20:32 10° NW 16:24:50 30° N 16:24:50 30° N
SL-16 R/B 3.5 16:21:05 10° WNW 16:26:03 30° N 16:26:18 30° N
Cosmos 2237 Rocket 2.5 16:21:37 10° SW 16:26:47 65° WNW 16:26:47 65° WNW
GEOS 3 Rocket 4.2 16:32:17 54° NW 16:32:17 54° NW 16:36:38 10° WNW
COSMO-SKYMED 1 4.3 16:33:45 30° W 16:33:45 30° W 16:36:34 10° SW
Cosmos 2369 Rocket 3.2 16:28:42 10° NW 16:34:03 42° WSW 16:34:50 40° SW
Cosmos 1656 Rocket 4.1 16:28:27 10° NW 16:33:32 58° W 16:33:32 58° W
Meteor 1-11 Rocket 4.3 16:31:02 10° NNW 16:35:21 53° NNW 16:35:21 53° NNW
SeaSat 1 4.0 16:43:44 31° NNW 16:43:44 31° NNW 16:46:20 10° NW
Cosmos 1980 4.4 16:39:42 10° WSW 16:44:34 52° WNW 16:44:34 52° WNW
H-2A R/B 3.8 16:43:13 10° SSW 16:47:49 29° W 16:52:21 10° NNW
Cosmos 1943 Rocket 4.4 17:02:02 10° WNW 17:05:56 20° WSW 17:07:55 17° SW
SL-16 R/B 4.3 17:08:35 10° SW 17:09:55 18° SW 17:09:55 18° SW
Cosmos 2322 Rocket 3.9 17:10:09 10° WNW 17:13:44 26° NNW 17:13:44 26° NNW
USA 215 4.5 17:32:16 33° WSW 17:32:16 33° WSW 17:35:40 10° WSW
Cosmos 2333 Rocket 3.9 17:24:31 10° WNW 17:28:10 28° NW 17:28:10 28° NW
COSMOS 2428 4.4 17:29:35 10° WNW 17:33:12 28° NW 17:33:12 28° NW
Cosmos 2360 Rocket 4.4 17:51:52 10° NW 17:54:11 21° NW 17:54:11 21° NW
Cosmos 2219 Rocket 4.4 18:00:07 10° WNW 18:02:22 20° NW 18:02:22 20° NW
CENTAUR R/B 4.3 22:56:02 33° E 22:56:02 33° E 23:00:22 10° E
Cosmos 2082 Rocket 4.4 23:21:08 20° NNE 23:21:08 20° NNE 23:23:07 10° NE
